| time (UTC) | temp F | wind direction | speed MPH | gust MPH | rain 1hr in | rain 24hr in | rain mn in | humidity % | barometer mb |
| 20260509214216 | 46 | 315 | 1.0 | 2.0 | 0.00 | 0.00 | 0.00 | 92 | 1027.0 |
| 20260509213216 | 46 | 0 | 2.0 | 3.0 | 0.00 | 0.00 | 0.00 | 92 | 1026.8 |
| 20260509212216 | 46 | 0.0 | 1.0 | 0.00 | 0.00 | 0.00 | 92 | 1026.6 | |
| 20260509211216 | 46 | 338 | 2.0 | 2.0 | 0.00 | 0.00 | 0.00 | 92 | 1026.4 |
| 20260509210217 | 46 | 315 | 1.0 | 2.0 | 0.00 | 0.00 | 0.00 | 92 | 1026.4 |
| 20260509205216 | 46 | 0.0 | 2.0 | 0.00 | 0.00 | 0.00 | 92 | 1026.3 | |
| 20260509204216 | 45 | 315 | 2.0 | 4.0 | 0.00 | 0.00 | 0.00 | 92 | 1026.3 |
| 20260509203216 | 45 | 0 | 1.0 | 2.0 | 0.00 | 0.00 | 0.00 | 92 | 1026.2 |
| 20260509202237 | 45 | 315 | 2.0 | 3.0 | 0.00 | 0.00 | 0.00 | 91 | 1025.9 |
| 20260509201216 | 46 | 0.0 | 1.0 | 0.00 | 0.00 | 0.00 | 92 | 1025.9 | |
| 20260509200217 | 45 | 338 | 1.0 | 2.0 | 0.00 | 0.00 | 0.00 | 91 | 1025.7 |
| 20260509195216 | 46 | 338 | 1.0 | 2.0 | 0.00 | 0.00 | 0.00 | 91 | 1025.6 |
| 20260509194236 | 46 | 0.0 | 1.0 | 0.00 | 0.00 | 0.00 | 91 | 1025.5 | |
| 20260509193216 | 46 | 0 | 2.0 | 3.0 | 0.00 | 0.00 | 0.00 | 91 | 1025.3 |
| 20260509192216 | 46 | 0.0 | 1.0 | 0.00 | 0.00 | 0.00 | 91 | 1025.2 | |
| 20260509191216 | 46 | 315 | 1.0 | 2.0 | 0.00 | 0.00 | 0.00 | 91 | 1025.1 |
| 20260509190216 | 46 | 315 | 2.0 | 5.0 | 0.00 | 0.00 | 0.00 | 91 | 1025.0 |
| 20260509185216 | 46 | 0 | 1.0 | 3.0 | 0.00 | 0.00 | 0.00 | 91 | 1024.9 |
| 20260509184217 | 47 | 0 | 1.0 | 2.0 | 0.00 | 0.00 | 0.00 | 91 | 1024.9 |
| 20260509183218 | 47 | 0 | 1.0 | 3.0 | 0.00 | 0.00 | 0.00 | 91 | 1025.0 |
| 20260509182218 | 46 | 0 | 1.0 | 2.0 | 0.00 | 0.00 | 0.00 | 91 | 1024.9 |
| 20260509181216 | 46 | 0 | 2.0 | 3.0 | 0.00 | 0.00 | 0.00 | 90 | 1024.6 |
| 20260509180218 | 47 | 0 | 2.0 | 3.0 | 0.00 | 0.00 | 0.00 | 90 | 1024.5 |
| 20260509175219 | 47 | 338 | 2.0 | 2.0 | 0.00 | 0.00 | 0.00 | 90 | 1024.4 |
| 20260509174238 | 47 | 23 | 2.0 | 3.0 | 0.00 | 0.00 | 0.00 | 90 | 1024.3 |
| 20260509173218 | 47 | 23 | 2.0 | 2.0 | 0.00 | 0.00 | 0.00 | 90 | 1024.2 |
| 20260509172218 | 47 | 315 | 1.0 | 2.0 | 0.00 | 0.00 | 0.00 | 90 | 1024.2 |
| 20260509171238 | 47 | 45 | 2.0 | 2.0 | 0.00 | 0.00 | 0.00 | 90 | 1024.1 |
| 20260509170218 | 47 | 338 | 1.0 | 2.0 | 0.00 | 0.00 | 0.00 | 90 | 1024.2 |
| 20260509165218 | 47 | 338 | 1.0 | 2.0 | 0.00 | 0.00 | 0.00 | 89 | 1024.1 |
| 20260509164242 | 47 | 0 | 3.0 | 4.0 | 0.00 | 0.00 | 0.00 | 89 | 1024.0 |
| 20260509163717 | 47 | 23 | 2.0 | 3.0 | 0.00 | 0.00 | 0.00 | 89 | 1024.0 |
| 20260509162717 | 47 | 0 | 1.0 | 2.0 | 0.00 | 0.00 | 0.00 | 88 | 1023.9 |
| 20260509161717 | 48 | 0.0 | 0.0 | 0.00 | 0.00 | 0.00 | 88 | 1023.7 | |
| 20260509160717 | 48 | 0 | 1.0 | 3.0 | 0.00 | 0.00 | 0.00 | 88 | 1023.5 |
| 20260509155718 | 48 | 0 | 1.0 | 2.0 | 0.00 | 0.00 | 0.00 | 87 | 1023.6 |
| 20260509154717 | 48 | 0.0 | 1.0 | 0.00 | 0.00 | 0.00 | 87 | 1023.4 | |
| 20260509153717 | 49 | 0 | 1.0 | 3.0 | 0.00 | 0.00 | 0.00 | 87 | 1023.2 |
| 20260509152717 | 48 | 0 | 2.0 | 3.0 | 0.00 | 0.00 | 0.00 | 86 | 1023.2 |
| 20260509151717 | 49 | 315 | 1.0 | 3.0 | 0.00 | 0.00 | 0.00 | 85 | 1023.2 |
| 20260509150717 | 49 | 0 | 2.0 | 3.0 | 0.00 | 0.00 | 0.00 | 85 | 1023.0 |
| 20260509145717 | 50 | 45 | 2.0 | 3.0 | 0.00 | 0.00 | 0.00 | 85 | 1023.0 |
| 20260509144717 | 50 | 338 | 2.0 | 3.0 | 0.00 | 0.00 | 0.00 | 85 | 1023.1 |
| 20260509143717 | 49 | 270 | 3.0 | 4.0 | 0.00 | 0.00 | 0.00 | 85 | 1023.1 |
| 20260509142718 | 49 | 0 | 1.0 | 2.0 | 0.00 | 0.00 | 0.00 | 84 | 1022.8 |
| 20260509141717 | 50 | 338 | 1.0 | 2.0 | 0.00 | 0.00 | 0.00 | 82 | 1022.7 |
| 20260509140737 | 51 | 68 | 6.0 | 9.0 | 0.00 | 0.00 | 0.00 | 81 | 1022.7 |
| 20260509135736 | 51 | 45 | 1.0 | 2.0 | 0.00 | 0.00 | 0.00 | 78 | 1022.6 |
| 20260509134737 | 54 | 338 | 1.0 | 2.0 | 0.00 | 0.00 | 0.00 | 75 | 1022.5 |
| 20260509133716 | 55 | 113 | 2.0 | 4.0 | 0.00 | 0.00 | 0.00 | 79 | 1022.5 |
| 20260509132716 | 53 | 315 | 1.0 | 3.0 | 0.00 | 0.00 | 0.00 | 81 | 1022.6 |
| 20260509131717 | 51 | 90 | 3.0 | 6.0 | 0.00 | 0.00 | 0.00 | 80 | 1022.6 |
| 20260509130736 | 52 | 23 | 3.0 | 5.0 | 0.00 | 0.00 | 0.00 | 78 | 1022.3 |
| 20260509125736 | 53 | 338 | 2.0 | 4.0 | 0.00 | 0.00 | 0.00 | 75 | 1022.5 |
| 20260509124716 | 55 | 0.0 | 2.0 | 0.00 | 0.00 | 0.00 | 72 | 1022.4 | |
| 20260509123716 | 56 | 45 | 1.0 | 2.0 | 0.00 | 0.00 | 0.00 | 73 | 1022.5 |
| 20260509122717 | 56 | 180 | 2.0 | 4.0 | 0.00 | 0.00 | 0.00 | 73 | 1022.6 |
| 20260509121716 | 56 | 68 | 2.0 | 5.0 | 0.00 | 0.00 | 0.00 | 73 | 1022.7 |
| 20260509120736 | 56 | 113 | 3.0 | 8.0 | 0.00 | 0.00 | 0.00 | 73 | 1022.6 |
| 20260509115716 | 56 | 135 | 2.0 | 4.0 | 0.00 | 0.00 | 0.00 | 72 | 1022.6 |
| 20260509114716 | 56 | 203 | 4.0 | 10.0 | 0.00 | 0.00 | 0.00 | 71 | 1022.6 |
| 20260509113716 | 56 | 158 | 4.0 | 8.0 | 0.00 | 0.00 | 0.00 | 71 | 1022.6 |
| 20260509112716 | 56 | 158 | 3.0 | 4.0 | 0.00 | 0.00 | 0.00 | 70 | 1022.3 |
| 20260509111737 | 57 | 135 | 2.0 | 4.0 | 0.00 | 0.00 | 0.00 | 69 | 1022.0 |
| 20260509110716 | 57 | 135 | 2.0 | 3.0 | 0.00 | 0.00 | 0.00 | 68 | 1021.8 |
| 20260509105736 | 57 | 135 | 1.0 | 3.0 | 0.00 | 0.00 | 0.00 | 67 | 1021.6 |
| 20260509104716 | 58 | 248 | 6.0 | 12.0 | 0.00 | 0.00 | 0.00 | 66 | 1021.5 |
| 20260509103736 | 57 | 225 | 3.0 | 4.0 | 0.00 | 0.00 | 0.00 | 66 | 1021.5 |
| 20260509102716 | 57 | 225 | 3.0 | 6.0 | 0.00 | 0.00 | 0.00 | 67 | 1021.6 |
| 20260509101716 | 57 | 315 | 3.0 | 6.0 | 0.00 | 0.00 | 0.00 | 68 | 1021.4 |
| 20260509100817 | 57 | 180 | 3.0 | 5.0 | 0.00 | 0.00 | 0.00 | 69 | 1021.5 |
| 20260509095716 | 56 | 113 | 4.0 | 9.0 | 0.00 | 0.00 | 0.00 | 70 | 1021.7 |
| 20260509094716 | 56 | 203 | 3.0 | 4.0 | 0.00 | 0.00 | 0.00 | 70 | 1021.6 |
| 20260509093737 | 57 | 180 | 2.0 | 3.0 | 0.00 | 0.00 | 0.00 | 69 | 1021.5 |
| 20260509092716 | 56 | 203 | 1.0 | 4.0 | 0.00 | 0.00 | 0.00 | 70 | 1021.5 |
| 20260509091716 | 56 | 45 | 2.0 | 3.0 | 0.00 | 0.00 | 0.00 | 70 | 1021.5 |
| 20260509090756 | 57 | 45 | 1.0 | 2.0 | 0.00 | 0.00 | 0.00 | 69 | 1021.3 |
| 20260509085716 | 57 | 0 | 3.0 | 4.0 | 0.00 | 0.00 | 0.00 | 69 | 1021.3 |
| 20260509084716 | 57 | 293 | 2.0 | 3.0 | 0.00 | 0.00 | 0.00 | 69 | 1021.3 |
| 20260509083717 | 57 | 225 | 2.0 | 3.0 | 0.00 | 0.00 | 0.00 | 70 | 1021.2 |
| 20260509082716 | 57 | 248 | 1.0 | 4.0 | 0.00 | 0.00 | 0.00 | 70 | 1021.2 |
| 20260509081716 | 57 | 293 | 4.0 | 7.0 | 0.00 | 0.00 | 0.00 | 70 | 1021.2 |
| 20260509080716 | 57 | 248 | 2.0 | 5.0 | 0.00 | 0.00 | 0.00 | 70 | 1021.0 |
| 20260509075716 | 57 | 158 | 3.0 | 9.0 | 0.00 | 0.00 | 0.00 | 70 | 1021.1 |
| 20260509074736 | 58 | 225 | 1.0 | 2.0 | 0.00 | 0.00 | 0.00 | 69 | 1020.9 |
| 20260509073716 | 58 | 135 | 2.0 | 3.0 | 0.00 | 0.00 | 0.00 | 69 | 1020.8 |
| 20260509072716 | 58 | 180 | 1.0 | 2.0 | 0.00 | 0.00 | 0.00 | 68 | 1020.7 |
| 20260509071716 | 58 | 203 | 5.0 | 9.0 | 0.00 | 0.00 | 0.00 | 68 | 1020.4 |
| 20260509070736 | 59 | 158 | 3.0 | 7.0 | 0.00 | 0.00 | 0.00 | 67 | 1020.3 |
| 20260509065716 | 59 | 203 | 5.0 | 7.0 | 0.00 | 0.00 | 0.00 | 66 | 1020.0 |
| 20260509064756 | 59 | 0.0 | 1.0 | 0.00 | 0.00 | 0.00 | 67 | 1019.8 | |
| 20260509063716 | 59 | 203 | 4.0 | 6.0 | 0.00 | 0.00 | 0.00 | 67 | 1019.7 |
| 20260509062716 | 59 | 203 | 3.0 | 6.0 | 0.00 | 0.00 | 0.00 | 67 | 1019.7 |
| 20260509061718 | 60 | 270 | 3.0 | 4.0 | 0.00 | 0.00 | 0.00 | 64 | 1019.8 |
| 20260509060738 | 61 | 293 | 1.0 | 3.0 | 0.00 | 0.00 | 0.00 | 63 | 1019.9 |
| 20260509055718 | 61 | 180 | 4.0 | 11.0 | 0.00 | 0.00 | 0.00 | 64 | 1019.8 |
| 20260509054718 | 62 | 270 | 8.0 | 12.0 | 0.00 | 0.00 | 0.00 | 63 | 1019.7 |
| 20260509053738 | 62 | 203 | 4.0 | 8.0 | 0.00 | 0.00 | 0.00 | 63 | 1019.6 |
| 20260509052718 | 63 | 180 | 6.0 | 10.0 | 0.00 | 0.00 | 0.00 | 61 | 1019.6 |
| 20260509051718 | 64 | 203 | 5.0 | 9.0 | 0.00 | 0.00 | 0.00 | 60 | 1019.8 |
| 20260509050718 | 64 | 270 | 6.0 | 9.0 | 0.00 | 0.00 | 0.00 | 60 | 1019.6 |
| 20260509045718 | 64 | 225 | 6.0 | 17.0 | 0.00 | 0.00 | 0.00 | 59 | 1019.7 |
| 20260509044718 | 65 | 248 | 3.0 | 6.0 | 0.00 | 0.00 | 0.00 | 58 | 1019.5 |
| 20260509043718 | 64 | 248 | 3.0 | 6.0 | 0.00 | 0.00 | 0.00 | 60 | 1019.3 |
| 20260509042718 | 64 | 158 | 4.0 | 7.0 | 0.00 | 0.00 | 0.00 | 60 | 1019.1 |
| 20260509041818 | 64 | 248 | 4.0 | 9.0 | 0.00 | 0.00 | 0.00 | 60 | 1019.1 |
| 20260509035718 | 63 | 270 | 4.0 | 7.0 | 0.00 | 0.00 | 0.00 | 62 | 1019.0 |
| 20260509034718 | 63 | 270 | 4.0 | 8.0 | 0.00 | 0.00 | 0.00 | 62 | 1019.2 |
| 20260509033738 | 62 | 203 | 4.0 | 8.0 | 0.00 | 0.00 | 0.00 | 64 | 1018.9 |
| 20260509032758 | 62 | 270 | 2.0 | 6.0 | 0.00 | 0.00 | 0.00 | 66 | 1019.0 |
| 20260509031718 | 62 | 293 | 3.0 | 5.0 | 0.00 | 0.00 | 0.00 | 65 | 1019.1 |
| 20260509030718 | 61 | 248 | 4.0 | 10.0 | 0.00 | 0.00 | 0.00 | 68 | 1019.1 |
| 20260509025718 | 61 | 248 | 4.0 | 7.0 | 0.00 | 0.00 | 0.00 | 69 | 1019.1 |
| 20260509024718 | 61 | 270 | 2.0 | 3.0 | 0.00 | 0.00 | 0.00 | 68 | 1019.1 |
| 20260509023738 | 61 | 270 | 4.0 | 12.0 | 0.00 | 0.00 | 0.00 | 68 | 1019.3 |
| 20260509022718 | 61 | 293 | 2.0 | 3.0 | 0.00 | 0.00 | 0.00 | 68 | 1019.3 |
| 20260509021738 | 61 | 293 | 3.0 | 4.0 | 0.00 | 0.00 | 0.00 | 68 | 1019.4 |
| 20260509020718 | 61 | 225 | 5.0 | 8.0 | 0.00 | 0.00 | 0.00 | 68 | 1019.6 |
| 20260509015718 | 61 | 203 | 3.0 | 4.0 | 0.00 | 0.00 | 0.00 | 68 | 1019.4 |
| 20260509014738 | 61 | 135 | 2.0 | 7.0 | 0.00 | 0.00 | 0.00 | 68 | 1019.5 |
| 20260509013718 | 61 | 225 | 2.0 | 4.0 | 0.00 | 0.00 | 0.00 | 68 | 1019.5 |
| 20260509012738 | 61 | 90 | 1.0 | 2.0 | 0.00 | 0.00 | 0.00 | 67 | 1019.7 |
| 20260509011718 | 61 | 68 | 5.0 | 9.0 | 0.00 | 0.00 | 0.00 | 66 | 1019.9 |
| 20260509010738 | 60 | 0.0 | 1.0 | 0.00 | 0.00 | 0.00 | 67 | 1019.8 | |
| 20260509005718 | 60 | 23 | 2.0 | 4.0 | 0.00 | 0.00 | 0.00 | 64 | 1019.7 |
| 20260509004718 | 60 | 135 | 2.0 | 4.0 | 0.00 | 0.00 | 0.00 | 64 | 1019.6 |
| 20260509003718 | 60 | 113 | 1.0 | 3.0 | 0.00 | 0.00 | 0.00 | 63 | 1019.4 |
| 20260509002718 | 61 | 270 | 1.0 | 2.0 | 0.00 | 0.00 | 0.00 | 59 | 1019.3 |
| 20260509001718 | 61 | 338 | 3.0 | 6.0 | 0.00 | 0.00 | 0.00 | 58 | 1019.3 |
| 20260509000717 | 61 | 113 | 1.0 | 2.0 | 0.00 | 0.00 | 0.00 | 59 | 1019.2 |
| 20260508235718 | 62 | 203 | 2.0 | 4.0 | 0.00 | 0.00 | 0.00 | 58 | 1019.4 |
| 20260508234718 | 61 | 0.0 | 2.0 | 0.00 | 0.00 | 0.00 | 58 | 1019.4 | |
| 20260508233718 | 60 | 45 | 1.0 | 3.0 | 0.00 | 0.00 | 0.00 | 59 | 1019.3 |
| 20260508232718 | 60 | 90 | 2.0 | 5.0 | 0.00 | 0.00 | 0.00 | 62 | 1019.3 |
| 20260508231718 | 59 | 113 | 1.0 | 3.0 | 0.00 | 0.00 | 0.00 | 63 | 1019.2 |
| 20260508230738 | 58 | 135 | 1.0 | 4.0 | 0.00 | 0.00 | 0.00 | 65 | 1019.1 |
| 20260508225718 | 57 | 293 | 1.0 | 2.0 | 0.00 | 0.00 | 0.00 | 69 | 1019.1 |
| 20260508224718 | 56 | 113 | 2.0 | 3.0 | 0.00 | 0.00 | 0.00 | 70 | 1019.0 |
| 20260508223718 | 55 | 113 | 3.0 | 6.0 | 0.00 | 0.00 | 0.00 | 74 | 1018.9 |
| 20260508222718 | 55 | 90 | 2.0 | 6.0 | 0.00 | 0.00 | 0.00 | 74 | 1018.9 |
| 20260508221718 | 55 | 248 | 2.0 | 3.0 | 0.00 | 0.00 | 0.00 | 74 | 1018.7 |
| 20260508220738 | 55 | 113 | 4.0 | 8.0 | 0.00 | 0.00 | 0.00 | 75 | 1018.4 |
| 20260508215738 | 55 | 113 | 2.0 | 3.0 | 0.00 | 0.00 | 0.00 | 75 | 1018.2 |